OSCAR 7 (AO-7) 1 07530U 74089B 26071.60033231 -.00000026 00000+0 12684-3 0 9999 2 07530 101.9967 83.8215 0011953 316.4913 162.2549 12.53696384348419 PHASE 3B (AO-10) 1 14129U 83058B 26071.73249050 .00000034 00000+0 00000+0 0 9992 2 14129 25.9221 235.7459 6045625 88.9408 335.3649 2.05870596293504 UOSAT 2 (UO-11) 1 14781U 84021B 26071.82885625 .00001772 00000+0 18702-3 0 9993 2 14781 97.7946 38.5566 0008619 134.6539 225.5383 14.90518657242779 LUSAT (LO-19) 1 20442U 90005G 26071.62112445 .00000192 00000+0 85151-4 0 9992 2 20442 98.8935 90.7312 0012457 126.4748 233.7585 14.34089426888557 EYESAT A (AO-27) 1 22825U 93061C 26071.71380983 .00000133 00000+0 67474-4 0 9991 2 22825 98.6976 139.1260 0008809 30.7871 329.3826 14.30914229693207 ITAMSAT (IO-26) 1 22826U 93061D 26071.72187373 .00000142 00000+0 70413-4 0 9998 2 22826 98.6924 139.0420 0009024 14.5609 345.5832 14.31338357693511 RADIO ROSTO (RS15) 1 23439U 94085A 26071.62226791 -.00000043 00000+0 -20523-4 0 9992 2 23439 64.8133 99.3897 0152773 21.4786 339.2459 11.27583882285012 JAS-2 (FO-29) 1 24278U 96046B 26071.60397799 .00000008 00000+0 45667-4 0 9993 2 24278 98.5377 293.6293 0349702 347.2088 12.0349 13.53268870460108 TECHSAT 1B (GO-32) 1 25397U 98043D 26071.54984197 .00000125 00000+0 73993-4 0 9995 2 25397 99.0029 61.8925 0002134 115.0247 245.1152 14.24407055437576 ISS (ZARYA) 1 25544U 98067A 26071.80448780 .00009714 00000+0 18665-3 0 9994 2 25544 51.6325 56.9556 0007970 185.8192 174.2705 15.48609576556819 PCSAT (NO-44) 1 26931U 01043C 26071.63164662 .00000164 00000+0 92253-4 0 9994 2 26931 67.0501 134.0045 0007010 265.0968 94.9334 14.31913920276621 SAUDISAT 1C (SO-50) 1 27607U 02058C 26071.58495828 .00002213 00000+0 27794-3 0 9991 2 27607 64.5526 67.8178 0075292 280.1855 79.0765 14.82797589250138 CUTE-1 (CO-55) 1 27844U 03031E 26071.58462092 .00000437 00000+0 20838-3 0 9991 2 27844 98.6778 81.3475 0010728 104.9211 255.3157 14.24269020177920 CUBESAT XI-IV (CO-57) 1 27848U 03031J 26071.52490780 .00000374 00000+0 18335-3 0 9993 2 27848 98.6808 81.0787 0010480 121.3489 238.8716 14.23563697177626 MOZHAETS 4 (RS22) 1 27939U 03042A 26071.85365451 .00001590 00000+0 25417-3 0 9998 2 27939 98.3446 253.5027 0010651 209.3538 257.7219 14.73265397201365 CUBESAT XI-V 1 28895U 05043F 26071.84204078 .00002319 00000+0 37437-3 0 9994 2 28895 98.2837 225.5256 0014893 148.0001 212.2113 14.72336247 87575 CUTE-1.7+APD II (CO-65) 1 32785U 08021C 26071.89771396 .00007886 00000+0 51033-3 0 9995 2 32785 97.8202 51.4268 0009246 7.8229 352.3141 15.08422231970676 SEEDS II (CO-66) 1 32791U 08021J 26071.60401122 .00022620 00000+0 79898-3 0 9990 2 32791 97.7518 65.1556 0000957 346.4462 13.6752 15.29223276972516 YUBILEINY (RS30) 1 32953U 08025A 26071.84651597 .00000088 00000+0 56389-3 0 9997 2 32953 82.5007 55.3583 0019638 158.3610 201.8304 12.43176328807725 KKS-1 (KISEKI) 1 33499U 09002H 26071.83882839 .00001947 00000+0 24723-3 0 9995 2 33499 98.1181 352.7820 0006567 238.1051 121.9523 14.82843595921913 SWISSCUBE 1 35932U 09051B 26071.69360593 .00001487 00000+0 30458-3 0 9996 2 35932 98.4095 337.8898 0007286 144.0492 216.1200 14.62269136875059 BEESAT-1 1 35933U 09051C 26071.51691407 .00001249 00000+0 26159-3 0 9998 2 35933 98.4025 337.5444 0005513 154.7579 205.3891 14.61540877875062 ITUPSAT1 1 35935U 09051E 26071.69767748 .00001145 00000+0 24721-3 0 9999 2 35935 98.4111 337.0197 0007476 168.7108 191.4260 14.60275662874658 XIWANG-1 (HOPE-1) 1 36122U 09072B 26071.87695881 -.00000345 00000+0 -78809-3 0 9998 2 36122 100.3918 27.2948 0008113 92.7653 267.4388 13.16434819780334 O/OREOS (USA 219) 1 37224U 10062C 26071.74624663 .00002641 00000+0 25736-3 0 9999 2 37224 71.9709 298.7237 0016801 251.5334 108.4010 14.93298425102240 JUGNU 1 37839U 11058B 26071.61772689 .00000530 00000+0 13730-3 0 9991 2 37839 19.9596 175.1079 0018746 89.4771 54.5382 14.13742598745347 SRMSAT 1 37841U 11058D 26071.88014721 .00000480 00000+0 11685-3 0 9990 2 37841 19.9720 282.3949 0011727 224.2053 250.8798 14.11549135744194 STRAND-1 1 39090U 13009E 26071.76711698 .00000461 00000+0 16958-3 0 9997 2 39090 98.3892 254.3823 0009203 152.9578 207.2090 14.37098069683217 ZACUBE-1 (TSHEPISOSAT) 1 39417U 13066B 26071.46451722 .00004995 00000+0 39525-3 0 9990 2 39417 97.8162 33.3027 0042859 210.7358 149.1354 15.00356925666226 GOMX-1 1 39430U 13066Q 26071.82163227 .00002159 00000+0 33043-3 0 9994 2 39430 97.6570 278.3316 0130093 27.5168 333.2847 14.69112316655763 CUBEBUG-2 (LO-74) 1 39440U 13066AA 26071.84762697 .00006457 00000+0 60655-3 0 9997 2 39440 97.8805 20.5253 0058254 348.4702 11.5178 14.92998447662619 FUNCUBE-1 (AO-73) 1 39444U 13066AE 26071.29535176 .00008749 00000+0 56408-3 0 9997 2 39444 97.8189 40.8783 0037634 169.9501 190.2488 15.07963577665056 UWE-3 1 39446U 13066AG 26071.40481443 .00006038 00000+0 52829-3 0 9991 2 39446 97.8588 26.9469 0048200 282.7822 76.8015 14.96214975663105 UNISAT-6 1 40012U 14033C 26071.43113031 .00003998 00000+0 43692-3 0 9995 2 40012 97.7730 225.9555 0045882 28.9236 331.4508 14.87659811631770 DUCHIFAT-1 1 40021U 14033M 26071.66947214 .00061000 00000+0 10750-2 0 9994 2 40021 98.0637 118.4490 0005901 76.2665 283.9241 15.50204280640732 QB50P1 1 40025U 14033R 26071.54716411 .00010767 00000+0 55429-3 0 9995 2 40025 98.1010 76.0232 0008665 184.3820 175.7336 15.16587552638377 LILACSAT-2 1 40908U 15049K 26071.81140157 .00019513 00000+0 37259-3 0 9990 2 40908 97.4807 105.1447 0005901 231.0249 129.0476 15.48152224580822 FOX-1A (AO-85) 1 40967U 15058D 26071.74619670 .00004410 00000+0 40081-3 0 9995 2 40967 64.7750 218.5519 0128813 94.6758 266.9079 14.90384801 99195 CAS-2T & KS-1Q 1 41847U 16066G 26071.75484931 .00001557 00000+0 22572-3 0 9998 2 41847 98.3881 148.5710 0343561 62.2214 301.3364 14.44480000490871 RADFXSAT (FOX-1B) 1 43017U 17073E 26071.57536950 .00014489 00000+0 65446-3 0 9992 2 43017 97.4859 300.8129 0154357 301.9271 56.7024 15.10950627450795 DIWATA-2B 1 43678U 18084H 26071.85757525 .00004046 00000+0 33024-3 0 9997 2 43678 98.1043 264.0241 0012142 117.4066 242.8393 14.99982133401778 ES'HAIL 2 1 43700U 18090A 26071.79085058 .00000144 00000+0 00000+0 0 9997 2 43700 0.0173 145.4269 0001102 201.7102 133.8009 1.00271326 26717 FOX-1CLIFF (AO-95) 1 43770U 18099N 26071.72824332 .00012969 00000+0 52952-3 0 9997 2 43770 97.4509 132.4339 0008110 335.2955 24.7893 15.24502263398513 ITASAT 1 43786U 18099AE 26071.67550692 .00008290 00000+0 41330-3 0 9993 2 43786 97.4162 125.1435 0011941 335.6158 24.4509 15.17731810398263 JY1SAT (JO-97) 1 43803U 18099AX 26071.69409322 .00018439 00000+0 62819-3 0 9999 2 43803 97.4251 134.3706 0004884 243.5412 116.5328 15.30427657398856 UWE-4 1 43880U 18111E 26071.72879685 .00032422 00000+0 80616-3 0 9999 2 43880 97.5847 356.1269 0006906 327.7228 32.3594 15.40211697395907 TIANYAN 01 1 44881U 19093C 26071.84973609 .00000980 00000+0 11701-3 0 9998 2 44881 97.7604 146.4127 0014784 48.2087 312.0389 14.86350160337102 RS-44 & BREEZE-KM R/B 1 44909U 19096E 26071.84349184 .00000041 00000+0 11949-3 0 9999 2 44909 82.5207 43.7179 0217804 9.9605 350.5709 12.79747531290022 SALSAT 1 46495U 20068K 26071.55405918 .00009897 00000+0 36214-3 0 9998 2 46495 97.8863 68.8510 0008110 284.2455 75.7882 15.28248963300591 XW-3 (CAS-9) 1 50466U 21131B 26071.83637487 .00000684 00000+0 22544-3 0 9998 2 50466 98.4951 164.7731 0004772 41.6354 318.5197 14.41256117221237 GREENCUBE (IO-117) 1 53109U 22080E 26071.68971833 -.00000003 00000+0 00000+0 0 9993 2 53109 70.1611 331.8124 0008944 311.3288 48.6601 6.42583072 85868 UMKA 1 (RS40S) 1 57172U 23091G 26071.79868546 .00007228 00000+0 34127-3 0 9994 2 57172 97.5175 130.8923 0014689 96.3593 263.9315 15.19648642149365 CUBESX-HSE 3 (RS42S) 1 57178U 23091N 26071.83672147 .00015328 00000+0 55008-3 0 9996 2 57178 97.5204 136.3390 0012581 77.6275 282.6372 15.28709958149696 MONITOR-3 (RS58S) 1 57180U 23091Q 26071.86063252 .00013097 00000+0 51321-3 0 9998 2 57180 97.5199 134.6932 0013553 82.0701 278.2074 15.25825149149596 MONITOR-4 (RS57S) 1 57182U 23091S 26071.84557958 .00012730 00000+0 49766-3 0 9992 2 57182 97.5193 134.6430 0013567 82.6178 277.6601 15.25911907149591 MONITOR-2 (RS39S) 1 57184U 23091U 26071.83736022 .00006793 00000+0 33711-3 0 9999 2 57184 97.5198 130.7525 0013008 89.2565 271.0159 15.17957366149331 SVYATOBOR 1 (RS60S) 1 57187U 23091X 26071.84999553 .00010992 00000+0 44395-3 0 9999 2 57187 97.5206 135.2065 0011061 75.6399 284.6066 15.24886455149621 VIZARD-METEO (RS38S) 1 57189U 23091Z 26071.83150090 .00018627 00000+0 58767-3 0 9996 2 57189 97.5192 139.5716 0008618 62.8329 297.3790 15.32880205149915 NANOZOND 1 (RS49S) 1 57190U 23091AA 26068.04609972 .00257461 00000+0 17344-2 0 9991 2 57190 97.5065 148.2398 0000999 320.8834 39.2358 15.74384803150173 POLYTECH-UNIVERSE 3 (R*) 1 57191U 23091AB 26071.87698500 .00006204 00000+0 30604-3 0 9994 2 57191 97.5175 130.2988 0017433 104.0361 256.2812 15.18143093149334 UTMN 2 (RS27S) 1 57203U 23091AP 26071.84319653 .00014928 00000+0 52214-3 0 9997 2 57203 97.5194 137.8604 0009573 67.1146 293.1104 15.29588853149808 KUZGTU 1 (RS47S) 1 57217U 23091AV 26071.88037017 .00014085 00000+0 52353-3 0 9995 2 57217 97.5178 135.4942 0012797 80.0183 280.2500 15.27571570149668 SONATE-2 1 59112U 24043Q 26071.81970835 .00040320 00000+0 67775-3 0 9991 2 59112 97.5393 216.8998 0007908 193.1783 166.9263 15.51620954112910 MESAT1 1 60209U 24125G 26071.66275626 .00044918 00000+0 69426-3 0 9992 2 60209 97.2454 287.5396 0011445 209.5505 150.5103 15.53896136 94534 OOV-CUBE (TUBSAT-30) 1 60240U 24128F 26071.69137885 .00003962 00000+0 30511-3 0 9994 2 60240 61.9948 201.9264 0054235 112.9346 247.7481 15.02277827 91611 COLIBRI-S (RS67S) 1 61746U 24199M 26071.86117248 .00025358 00000+0 56396-3 0 9996 2 61746 97.3158 305.0386 0007505 270.9816 89.0572 15.43614957122533 HORS 3 (RS81S) 1 61753U 24199U 26071.87746735 .00034565 00000+0 64700-3 0 9992 2 61753 97.3128 306.1838 0005366 274.7862 85.2776 15.48612115122621 HORS 4 (RS82S) 1 61754U 24199V 26071.87496183 .00043692 00000+0 73848-3 0 9996 2 61754 97.3098 306.8911 0004972 271.0378 89.0304 15.51469081122671 HORIZON (RS59S) 1 61757U 24199Y 26071.86813820 .00151262 00000+0 11821-2 0 9994 2 61757 97.3061 310.8155 0003310 224.8537 135.2459 15.71174215122924 ARCTICSAT 1 (RS74S) 1 61762U 24199AD 26071.82650979 .00112603 00000+0 10732-2 0 9996 2 61762 97.3087 310.2721 0003659 229.0963 130.9981 15.66428241122889 SIT-2086 1 61764U 24199AF 26071.82531497 .00026744 00000+0 51538-3 0 9991 2 61764 97.3119 306.8582 0005919 258.5010 101.5576 15.47820712119501 HYPERVIEW 1G (RS66S) 1 61772U 24199AP 26071.83910867 .00072914 00000+0 95103-3 0 9999 2 61772 97.3084 307.9938 0006238 268.1161 91.9381 15.58442903119596 ALTAIR (RS65S) 1 61779U 24199AW 26071.83060645 .00009177 00000+0 27155-3 0 9999 2 61779 97.3182 301.8656 0011868 295.7034 64.2983 15.35052998122324 ASRTU-1 (AO-123) 1 61781U 24199AY 26071.87736392 .00009964 00000+0 30320-3 0 9997 2 61781 97.3155 301.4335 0012612 297.6505 62.3457 15.34133866119154 TUSUR GO (RS78S) 1 61782U 24199AZ 26071.81610322 .00166955 00000+0 12654-2 0 9999 2 61782 97.3016 309.7722 0003545 249.2923 110.7960 15.71858934119714 SAMSAT-IONOSPHERE (RS7*) 1 61784U 24199BB 26071.83467402 .00041190 00000+0 73770-3 0 9992 2 61784 97.3118 305.9383 0008460 279.2466 80.7828 15.49815889122604 RTU MIREA 1 (RS51S) 1 61785U 24199BC 26071.82865732 .00046980 00000+0 78420-3 0 9999 2 61785 97.3117 306.3860 0008315 274.5171 85.5131 15.51780017119488 TEVEL2-4 1 63213U 25052D 26071.70069661 .00021009 00000+0 70127-3 0 9991 2 63213 97.4016 328.1232 0004792 87.6329 272.5460 15.31063663 55338 TEVEL2-5 1 63214U 25052E 26071.64652685 .00020612 00000+0 69080-3 0 9994 2 63214 97.4014 328.0409 0004756 90.1067 270.0719 15.30936720 55321 TEVEL2-6 1 63215U 25052F 26071.65643196 .00021722 00000+0 72864-3 0 9990 2 63215 97.4016 328.0367 0004859 90.3008 269.8790 15.30896934 55325 TEVEL2-1 1 63217U 25052H 26071.65549193 .00020565 00000+0 69915-3 0 9991 2 63217 97.3990 327.7649 0004828 99.2965 260.8822 15.30473039 55315 TEVEL2-3 1 63218U 25052J 26071.65300071 .00020987 00000+0 71257-3 0 9992 2 63218 97.3991 327.7743 0004909 99.3774 260.8022 15.30510578 55313 TEVEL2-2 1 63219U 25052K 26071.65614720 .00020729 00000+0 70464-3 0 9995 2 63219 97.3989 327.7668 0004811 100.3144 259.8639 15.30475266 55319 TEVEL2-9 1 63237U 25052AD 26071.64787713 .00019147 00000+0 68604-3 0 9992 2 63237 97.4057 327.3223 0008172 115.8360 244.3723 15.28754273 55266 TEVEL2-7 1 63238U 25052AE 26071.67260300 .00018080 00000+0 65236-3 0 9997 2 63238 97.4056 327.2987 0008301 116.0056 244.2039 15.28535397 55264 TEVEL2-8 1 63239U 25052AF 26071.67966764 .00018175 00000+0 65622-3 0 9999 2 63239 97.4055 327.2862 0008275 116.8914 243.3173 15.28512652 55265 HADES-ICM 1 63492U 25052BN 26071.65340648 .00144463 00000+0 19096-2 0 9998 2 63492 97.3940 332.2098 0009178 105.5033 254.7237 15.57805361 55604 INNOSAT 16 (RS92S7) 1 64878U 25155C 26071.86781718 .00007943 00000+0 32794-3 0 9993 2 64878 97.4464 39.4448 0011389 154.9814 205.1978 15.24237139 65993 GEOSCAN 6 (RS92S6) 1 64879U 25155D 26071.85843367 .00013945 00000+0 51114-3 0 9998 2 64879 97.4462 40.2374 0009118 144.9135 215.2706 15.28069002 66046 GEOSCAN 1 (RS92S1) 1 64880U 25155E 26071.82786754 .00013319 00000+0 48207-3 0 9997 2 64880 97.4462 40.2826 0009075 144.8170 215.3670 15.28497609 66049 239ALFEROV (RS61S) 1 64881U 25155F 26071.85042204 .00018805 00000+0 64765-3 0 9998 2 64881 97.4466 40.5866 0008804 142.8977 217.2873 15.30046958 66061 GEOSCAN 2 (RS92S2) 1 64890U 25155Q 26071.83960730 .00014098 00000+0 50542-3 0 9997 2 64890 97.4461 40.4063 0008852 132.7829 227.4156 15.28797845 66052 GEOSCAN 5 (RS92S5) 1 64891U 25155R 26071.85989792 .00019079 00000+0 65052-3 0 9995 2 64891 97.4458 40.6956 0007444 145.9247 214.2473 15.30379153 66077 GEOSCAN 4 (RS92S4) 1 64892U 25155S 26071.85206411 .00018851 00000+0 64074-3 0 9996 2 64892 97.4461 40.7130 0007469 146.2323 213.9395 15.30483454 66072 GEOSCAN 3 (RS92S3) 1 64893U 25155T 26071.82725551 .00022370 00000+0 72853-3 0 9990 2 64893 97.4453 40.8848 0007224 145.9606 214.2100 15.31832216 66084 INNOSAT 3 (RS92S0) 1 64894U 25155U 26071.84984456 .00040198 00000+0 11092-2 0 9999 2 64894 97.4423 41.5801 0007048 139.5743 220.6026 15.36954446 66133